date,time,SUV Intensity [MED/Hr],UV Index,Daily total [MED],Since Last [MED]
27/06/2022,00:09:43,0.001,0.0,0.0,0.0
27/06/2022,00:10:44,-0.001,0.0,0.0,0.0
27/06/2022,00:11:43,0.000,0.0,0.0,0.0
27/06/2022,00:12:43,0.000,0.0,0.0,0.0
27/06/2022,00:13:43,-0.001,0.0,0.0,0.0
27/06/2022,00:14:43,-0.000,0.0,0.0,0.0
27/06/2022,00:15:43,0.000,0.0,0.0,0.0
27/06/2022,00:16:43,0.001,0.0,0.0,0.0
27/06/2022,00:17:43,0.000,0.0,0.0,0.0
27/06/2022,00:18:51,0.000,0.0,0.0,0.0
27/06/2022,00:19:43,0.000,0.0,0.0,0.0
27/06/2022,00:20:43,0.000,0.0,0.0,0.0
27/06/2022,00:21:43,0.000,0.0,0.0,0.0
27/06/2022,00:22:43,0.000,0.0,0.0,0.0
27/06/2022,00:23:44,0.000,0.0,0.0,0.0
27/06/2022,00:24:44,0.001,0.0,0.0,0.0
27/06/2022,00:25:43,-0.001,0.0,0.0,0.0
27/06/2022,00:26:43,-0.000,0.0,0.0,0.0
27/06/2022,00:27:43,0.000,0.0,0.0,0.0
27/06/2022,00:28:43,0.000,0.0,0.0,0.0
27/06/2022,00:29:44,-0.001,0.0,0.0,0.0
27/06/2022,00:30:43,0.001,0.0,0.0,0.0
27/06/2022,00:31:43,0.000,0.0,0.0,0.0
27/06/2022,00:32:43,0.000,0.0,0.0,0.0
27/06/2022,00:33:43,0.000,0.0,0.0,0.0
27/06/2022,00:34:43,0.000,0.0,0.0,0.0
27/06/2022,00:35:43,-0.000,0.0,0.0,0.0
27/06/2022,00:36:43,-0.001,0.0,0.0,0.0
27/06/2022,00:37:51,0.000,0.0,0.0,0.0
27/06/2022,00:38:43,0.001,0.0,0.0,0.0
27/06/2022,00:39:43,0.000,0.0,0.0,0.0
27/06/2022,00:40:43,0.000,0.0,0.0,0.0
27/06/2022,00:41:44,0.000,0.0,0.0,0.0
27/06/2022,00:42:43,0.000,0.0,0.0,0.0
27/06/2022,00:43:45,0.000,0.0,0.0,0.0
27/06/2022,00:44:43,-0.001,0.0,0.0,0.0
27/06/2022,00:45:43,0.000,0.0,0.0,0.0
27/06/2022,00:46:44,0.000,0.0,0.0,0.0
27/06/2022,00:47:44,0.000,0.0,0.0,0.0
27/06/2022,00:48:43,0.001,0.0,0.0,0.0
27/06/2022,00:49:44,0.000,0.0,0.0,0.0
27/06/2022,00:50:43,0.000,0.0,0.0,0.0
27/06/2022,00:51:43,0.000,0.0,0.0,0.0
27/06/2022,00:52:43,0.000,0.0,0.0,0.0
27/06/2022,00:53:43,-0.001,0.0,0.0,0.0
27/06/2022,00:54:51,0.001,0.0,0.0,0.0
27/06/2022,00:55:43,-0.001,0.0,0.0,0.0
27/06/2022,00:56:43,0.000,0.0,0.0,0.0
27/06/2022,00:57:43,0.000,0.0,0.0,0.0
27/06/2022,00:58:43,0.000,0.0,0.0,0.0
27/06/2022,00:59:43,0.001,0.0,0.0,0.0
27/06/2022,01:00:43,0.000,0.0,0.0,0.0
27/06/2022,01:01:43,0.001,0.0,0.0,0.0
27/06/2022,01:02:43,0.000,0.0,0.0,0.0
27/06/2022,01:03:43,0.000,0.0,0.0,0.0
27/06/2022,01:04:43,0.000,0.0,0.0,0.0
27/06/2022,01:05:43,0.000,0.0,0.0,0.0
27/06/2022,01:06:43,0.000,0.0,0.0,0.0
27/06/2022,01:07:43,-0.001,0.0,0.0,0.0
27/06/2022,01:08:43,0.000,0.0,0.0,0.0
27/06/2022,01:09:43,0.000,0.0,0.0,0.0
27/06/2022,01:10:43,0.000,0.0,0.0,0.0
27/06/2022,01:11:44,0.000,0.0,0.0,0.0
27/06/2022,01:12:52,-0.001,0.0,0.0,0.0
27/06/2022,01:13:51,0.000,0.0,0.0,0.0
27/06/2022,01:14:43,0.001,0.0,0.0,0.0
27/06/2022,01:15:43,0.000,0.0,0.0,0.0
27/06/2022,01:16:43,0.000,0.0,0.0,0.0
27/06/2022,01:17:43,0.001,0.0,0.0,0.0
27/06/2022,01:18:43,0.001,0.0,0.0,0.0
27/06/2022,01:19:44,0.000,0.0,0.0,0.0
27/06/2022,01:20:44,0.000,0.0,0.0,0.0
27/06/2022,01:21:44,0.001,0.0,0.0,0.0
27/06/2022,01:22:43,-0.001,0.0,0.0,0.0
27/06/2022,01:23:43,-0.000,0.0,0.0,0.0
27/06/2022,01:24:37,0.000,0.0,0.0,0.0
27/06/2022,01:25:44,0.001,0.0,0.0,0.0
27/06/2022,01:26:43,-0.001,0.0,0.0,0.0
27/06/2022,01:27:43,0.000,0.0,0.0,0.0
27/06/2022,01:28:43,0.000,0.0,0.0,0.0
27/06/2022,01:29:44,-0.000,0.0,0.0,0.0
27/06/2022,01:30:43,0.001,0.0,0.0,0.0
27/06/2022,01:31:43,0.001,0.0,0.0,0.0
27/06/2022,01:32:44,0.000,0.0,0.0,0.0
27/06/2022,01:33:43,0.001,0.0,0.0,0.0
27/06/2022,01:34:44,0.001,0.0,0.0,0.0
27/06/2022,01:35:43,0.001,0.0,0.0,0.0
27/06/2022,01:36:44,0.001,0.0,0.0,0.0
27/06/2022,01:37:44,0.000,0.0,0.0,0.0
27/06/2022,01:38:52,0.000,0.0,0.0,0.0
27/06/2022,01:39:44,0.000,0.0,0.0,0.0
27/06/2022,01:40:43,0.000,0.0,0.0,0.0
27/06/2022,01:41:51,0.000,0.0,0.0,0.0
27/06/2022,01:42:43,0.000,0.0,0.0,0.0
27/06/2022,01:43:43,0.000,0.0,0.0,0.0
27/06/2022,01:44:43,0.001,0.0,0.0,0.0
27/06/2022,01:45:43,0.001,0.0,0.0,0.0
27/06/2022,01:46:43,-0.000,0.0,0.0,0.0
27/06/2022,01:47:43,0.000,0.0,0.0,0.0
27/06/2022,01:48:43,0.000,0.0,0.0,0.0
27/06/2022,01:49:43,0.000,0.0,0.0,0.0
27/06/2022,01:50:43,0.000,0.0,0.0,0.0
27/06/2022,01:51:52,0.000,0.0,0.0,0.0
27/06/2022,01:52:43,0.000,0.0,0.0,0.0
27/06/2022,01:53:43,0.001,0.0,0.0,0.0
27/06/2022,01:54:52,-0.001,0.0,0.0,0.0
27/06/2022,01:55:43,-0.000,0.0,0.0,0.0
27/06/2022,01:56:44,0.001,0.0,0.0,0.0
27/06/2022,01:57:43,0.000,0.0,0.0,0.0
27/06/2022,01:58:43,0.000,0.0,0.0,0.0
27/06/2022,01:59:44,0.000,0.0,0.0,0.0
27/06/2022,02:00:43,0.001,0.0,0.0,0.0
27/06/2022,02:01:43,0.001,0.0,0.0,0.0
27/06/2022,02:02:43,0.000,0.0,0.0,0.0
27/06/2022,02:03:43,0.001,0.0,0.0,0.0
27/06/2022,02:04:52,0.000,0.0,0.0,0.0
27/06/2022,02:05:43,-0.000,0.0,0.0,0.0
27/06/2022,02:06:43,0.000,0.0,0.0,0.0
27/06/2022,02:07:51,-0.001,0.0,0.0,0.0
27/06/2022,02:08:44,0.001,0.0,0.0,0.0
27/06/2022,02:09:43,0.001,0.0,0.0,0.0
27/06/2022,02:10:52,-0.000,0.0,0.0,0.0
27/06/2022,02:11:43,0.001,0.0,0.0,0.0
27/06/2022,02:12:43,0.001,0.0,0.0,0.0
27/06/2022,02:13:43,0.000,0.0,0.0,0.0
27/06/2022,02:14:44,0.001,0.0,0.0,0.0
27/06/2022,02:15:43,0.000,0.0,0.0,0.0
27/06/2022,02:16:44,0.001,0.0,0.0,0.0
27/06/2022,02:17:43,0.001,0.0,0.0,0.0
27/06/2022,02:18:43,0.000,0.0,0.0,0.0
27/06/2022,02:19:43,0.000,0.0,0.0,0.0
27/06/2022,02:20:44,0.001,0.0,0.0,0.0
27/06/2022,02:21:43,0.001,0.0,0.0,0.0
27/06/2022,02:22:44,0.001,0.0,0.0,0.0
27/06/2022,02:23:52,-0.001,0.0,0.0,0.0
27/06/2022,02:24:43,0.000,0.0,0.0,0.0
27/06/2022,02:25:44,0.000,0.0,0.0,0.0
27/06/2022,02:26:52,0.000,0.0,0.0,0.0
27/06/2022,02:27:43,0.000,0.0,0.0,0.0
27/06/2022,02:28:44,-0.000,0.0,0.0,0.0
27/06/2022,02:29:44,0.001,0.0,0.0,0.0
27/06/2022,02:30:43,-0.000,0.0,0.0,0.0
27/06/2022,02:31:43,-0.000,0.0,0.0,0.0
27/06/2022,02:32:43,0.001,0.0,0.0,0.0
27/06/2022,02:33:43,-0.001,0.0,0.0,0.0
27/06/2022,02:34:43,0.001,0.0,0.0,0.0
27/06/2022,02:35:43,0.001,0.0,0.0,0.0
27/06/2022,02:36:52,0.002,0.0,0.0,0.0
27/06/2022,02:37:43,-0.000,0.0,0.0,0.0
27/06/2022,02:38:44,0.001,0.0,0.0,0.0
27/06/2022,02:39:51,-0.000,0.0,0.0,0.0
27/06/2022,02:40:44,0.000,0.0,0.0,0.0
27/06/2022,02:41:43,0.000,0.0,0.0,0.0
27/06/2022,02:42:51,0.000,0.0,0.0,0.0
27/06/2022,02:43:43,0.001,0.0,0.0,0.0
27/06/2022,02:44:43,0.000,0.0,0.0,0.0
27/06/2022,02:45:43,0.001,0.0,0.0,0.0
27/06/2022,02:46:43,0.000,0.0,0.0,0.0
27/06/2022,02:47:43,0.000,0.0,0.0,0.0
27/06/2022,02:48:44,0.002,0.0,0.0,0.0
27/06/2022,02:49:44,0.000,0.0,0.0,0.0
27/06/2022,02:50:43,0.001,0.0,0.0,0.0
27/06/2022,02:51:44,0.000,0.0,0.0,0.0
27/06/2022,02:52:51,0.000,0.0,0.0,0.0
27/06/2022,02:53:43,0.000,0.0,0.0,0.0
27/06/2022,02:54:43,-0.000,0.0,0.0,0.0
27/06/2022,02:55:52,0.001,0.0,0.0,0.0
27/06/2022,02:56:43,0.001,0.0,0.0,0.0
27/06/2022,02:57:43,0.000,0.0,0.0,0.0
27/06/2022,02:58:43,0.001,0.0,0.0,0.0
27/06/2022,02:59:44,0.000,0.0,0.0,0.0
27/06/2022,03:00:44,0.001,0.0,0.0,0.0
27/06/2022,03:01:44,0.001,0.0,0.0,0.0
27/06/2022,03:02:43,0.002,0.0,0.0,0.0
27/06/2022,03:03:44,-0.000,0.0,0.0,0.0
27/06/2022,03:04:44,0.001,0.0,0.0,0.0
27/06/2022,03:05:52,0.000,0.0,0.0,0.0
27/06/2022,03:06:43,0.001,0.0,0.0,0.0
27/06/2022,03:07:43,0.002,0.0,0.0,0.0
27/06/2022,03:08:43,0.000,0.0,0.0,0.0
27/06/2022,03:09:44,0.001,0.0,0.0,0.0
27/06/2022,03:10:43,0.000,0.0,0.0,0.0
27/06/2022,03:11:52,0.001,0.0,0.0,0.0
27/06/2022,03:12:43,0.001,0.0,0.0,0.0
27/06/2022,03:13:43,0.001,0.0,0.0,0.0
27/06/2022,03:14:45,0.001,0.0,0.0,0.0
27/06/2022,03:15:45,0.000,0.0,0.0,0.0
27/06/2022,03:16:43,0.001,0.0,0.0,0.0
27/06/2022,03:17:43,-0.001,0.0,0.0,0.0
27/06/2022,03:18:43,0.001,0.0,0.0,0.0
27/06/2022,03:19:43,0.001,0.0,0.0,0.0
27/06/2022,03:20:43,0.002,0.0,0.0,0.0
27/06/2022,03:21:43,0.000,0.0,0.0,0.0
27/06/2022,03:22:43,0.000,0.0,0.0,0.0
27/06/2022,03:23:45,0.002,0.0,0.0,0.0
27/06/2022,03:24:43,0.001,0.0,0.0,0.0
27/06/2022,03:25:44,0.001,0.0,0.0,0.0
27/06/2022,03:26:44,0.000,0.0,0.0,0.0
27/06/2022,03:27:44,0.001,0.0,0.0,0.0
27/06/2022,03:28:44,0.000,0.0,0.0,0.0
27/06/2022,03:29:43,0.001,0.0,0.0,0.0
27/06/2022,03:30:44,0.001,0.0,0.0,0.0
27/06/2022,03:31:44,0.001,0.0,0.0,0.0
27/06/2022,03:32:44,0.001,0.0,0.0,0.0
27/06/2022,03:33:44,0.002,0.0,0.0,0.0
27/06/2022,03:34:43,0.000,0.0,0.0,0.0
27/06/2022,03:35:44,0.001,0.0,0.0,0.0
27/06/2022,03:36:44,0.001,0.0,0.0,0.0
27/06/2022,03:37:43,0.001,0.0,0.0,0.0
27/06/2022,03:38:43,0.001,0.0,0.0,0.0
27/06/2022,03:39:45,0.002,0.0,0.0,0.0
27/06/2022,03:40:43,0.000,0.0,0.0,0.0
27/06/2022,03:41:43,0.001,0.0,0.0,0.0
27/06/2022,03:42:43,0.001,0.0,0.0,0.0
27/06/2022,03:43:43,0.001,0.0,0.0,0.0
27/06/2022,03:44:51,0.002,0.0,0.0,0.0
27/06/2022,03:45:43,0.000,0.0,0.0,0.0
27/06/2022,03:46:44,0.002,0.0,0.0,0.0
27/06/2022,03:47:43,0.002,0.0,0.0,0.0
27/06/2022,03:48:43,0.001,0.0,0.0,0.0
27/06/2022,03:49:44,0.001,0.0,0.0,0.0
27/06/2022,03:50:44,0.002,0.0,0.0,0.0
27/06/2022,03:51:43,0.002,0.0,0.0,0.0
27/06/2022,03:52:44,0.002,0.0,0.0,0.0
27/06/2022,03:53:44,0.001,0.0,0.0,0.0
27/06/2022,03:54:44,0.002,0.0,0.0,0.0
27/06/2022,03:55:43,0.002,0.0,0.0,0.0
27/06/2022,03:56:44,0.002,0.0,0.0,0.0
27/06/2022,03:57:52,0.002,0.0,0.0,0.0
27/06/2022,03:58:43,0.002,0.0,0.0,0.0
27/06/2022,03:59:44,0.002,0.0,0.0,0.0
27/06/2022,04:00:43,0.002,0.0,0.0,0.0
27/06/2022,04:01:44,0.003,0.0,0.0,0.0
27/06/2022,04:02:43,0.003,0.0,0.0,0.0
27/06/2022,04:03:44,0.004,0.0,0.0,0.0
27/06/2022,04:04:44,0.004,0.0,0.0,0.0
27/06/2022,04:05:43,0.003,0.0,0.0,0.0
27/06/2022,04:06:53,0.004,0.0,0.0,0.0
27/06/2022,04:07:43,0.003,0.0,0.0,0.0
27/06/2022,04:08:43,0.005,0.0,0.0,0.0
27/06/2022,04:09:44,0.003,0.0,0.0,0.0
27/06/2022,04:10:43,0.004,0.0,0.0,0.0
27/06/2022,04:11:43,0.004,0.0,0.0,0.0
27/06/2022,04:12:43,0.006,0.0,0.0,0.0
27/06/2022,04:13:43,0.005,0.0,0.0,0.0
27/06/2022,04:14:44,0.004,0.0,0.0,0.0
27/06/2022,04:15:43,0.005,0.0,0.0,0.0
27/06/2022,04:16:43,0.006,0.0,0.0,0.0
27/06/2022,04:17:43,0.005,0.0,0.0,0.0
27/06/2022,04:18:43,0.006,0.0,0.0,0.0
27/06/2022,04:19:44,0.006,0.0,0.0,0.0
27/06/2022,04:20:44,0.008,0.0,0.0,0.0
27/06/2022,04:21:43,0.007,0.0,0.0,0.0
27/06/2022,04:22:44,0.007,0.0,0.001,0.001
27/06/2022,04:23:44,0.008,0.0,0.001,0.0
27/06/2022,04:24:44,0.008,0.0,0.001,0.0
27/06/2022,04:25:43,0.008,0.0,0.001,0.0
27/06/2022,04:26:44,0.010,0.0,0.001,0.0
27/06/2022,04:27:44,0.009,0.0,0.001,0.0
27/06/2022,04:28:43,0.009,0.0,0.001,0.0
27/06/2022,04:29:43,0.009,0.0,0.002,0.001
27/06/2022,04:30:44,0.009,0.0,0.002,0.0
27/06/2022,04:31:44,0.010,0.0,0.002,0.0
27/06/2022,04:32:43,0.010,0.0,0.002,0.0
27/06/2022,04:33:44,0.011,0.0,0.002,0.0
27/06/2022,04:34:44,0.011,0.0,0.002,0.0
27/06/2022,04:35:44,0.011,0.0,0.003,0.001
27/06/2022,04:36:43,0.012,0.0,0.003,0.0
27/06/2022,04:37:43,0.012,0.0,0.003,0.0
27/06/2022,04:38:44,0.013,0.0,0.003,0.0
27/06/2022,04:39:52,0.014,0.0,0.003,0.0
27/06/2022,04:40:43,0.014,0.0,0.004,0.001
27/06/2022,04:41:44,0.014,0.0,0.004,0.0
27/06/2022,04:42:52,0.015,0.0,0.004,0.0
27/06/2022,04:43:43,0.015,0.0,0.004,0.0
27/06/2022,04:44:44,0.016,0.0,0.005,0.001
27/06/2022,04:45:44,0.015,0.0,0.005,0.0
27/06/2022,04:46:44,0.017,0.0,0.005,0.0
27/06/2022,04:47:43,0.017,0.0,0.005,0.0
27/06/2022,04:48:44,0.018,0.0,0.006,0.001
27/06/2022,04:49:43,0.019,0.0,0.006,0.0
27/06/2022,04:50:44,0.019,0.0,0.006,0.0
27/06/2022,04:51:44,0.020,0.0,0.007,0.001
27/06/2022,04:52:43,0.021,0.0,0.007,0.0
27/06/2022,04:53:44,0.021,0.0,0.007,0.0
27/06/2022,04:54:44,0.021,0.0,0.008,0.001
27/06/2022,04:55:52,0.022,0.0,0.008,0.0
27/06/2022,04:56:50,0.023,0.0,0.008,0.0
27/06/2022,04:57:44,0.023,0.0,0.009,0.001
27/06/2022,04:58:51,0.024,0.0,0.009,0.0
27/06/2022,04:59:42,0.024,0.0,0.01,0.001
27/06/2022,05:00:44,0.025,0.0,0.01,0.0
27/06/2022,05:01:43,0.026,0.0,0.01,0.0
27/06/2022,05:02:43,0.027,0.0,0.011,0.001
27/06/2022,05:03:43,0.027,0.0,0.011,0.0
27/06/2022,05:04:44,0.027,0.0,0.012,0.001
27/06/2022,05:05:44,0.028,0.0,0.012,0.0
27/06/2022,05:06:43,0.029,0.0,0.013,0.001
27/06/2022,05:07:43,0.028,0.0,0.013,0.0
27/06/2022,05:08:53,0.030,0.0,0.014,0.001
27/06/2022,05:09:42,0.030,0.0,0.014,0.0
27/06/2022,05:10:44,0.031,0.0,0.015,0.001
27/06/2022,05:11:43,0.031,0.0,0.015,0.0
27/06/2022,05:12:44,0.032,0.0,0.016,0.001
27/06/2022,05:13:44,0.033,0.0,0.016,0.0
27/06/2022,05:14:44,0.033,0.0,0.017,0.001
27/06/2022,05:15:44,0.034,0.0,0.017,0.0
27/06/2022,05:16:43,0.036,0.0,0.018,0.001
27/06/2022,05:17:43,0.037,0.0,0.018,0.0
27/06/2022,05:18:43,0.038,0.0,0.019,0.001
27/06/2022,05:19:53,0.039,0.0,0.02,0.001
27/06/2022,05:20:43,0.040,0.0,0.02,0.0
27/06/2022,05:21:52,0.041,0.0,0.021,0.001
27/06/2022,05:22:44,0.042,0.0,0.022,0.001
27/06/2022,05:23:44,0.044,0.0,0.022,0.0
27/06/2022,05:24:52,0.044,0.0,0.023,0.001
27/06/2022,05:25:51,0.045,0.0,0.024,0.001
27/06/2022,05:26:44,0.046,0.0,0.025,0.001
27/06/2022,05:27:44,0.048,0.0,0.026,0.001
27/06/2022,05:28:43,0.049,0.0,0.026,0.0
27/06/2022,05:29:44,0.050,0.0,0.027,0.001
27/06/2022,05:30:43,0.051,0.0,0.028,0.001
27/06/2022,05:31:44,0.053,0.0,0.029,0.001
27/06/2022,05:32:43,0.053,0.0,0.03,0.001
27/06/2022,05:33:44,0.054,0.0,0.031,0.001
27/06/2022,05:34:44,0.055,0.0,0.032,0.001
27/06/2022,05:35:43,0.057,0.0,0.032,0.0
27/06/2022,05:36:44,0.060,0.0,0.033,0.001
27/06/2022,05:37:44,0.061,0.0,0.034,0.001
27/06/2022,05:38:43,0.062,0.0,0.035,0.001
27/06/2022,05:39:44,0.064,0.0,0.037,0.002
27/06/2022,05:40:43,0.065,0.0,0.038,0.001
27/06/2022,05:41:43,0.068,0.0,0.039,0.001
27/06/2022,05:42:43,0.068,0.0,0.04,0.001
27/06/2022,05:43:43,0.069,0.0,0.041,0.001
27/06/2022,05:44:44,0.071,0.0,0.042,0.001
27/06/2022,05:45:44,0.073,0.0,0.043,0.001
27/06/2022,05:46:43,0.073,0.0,0.045,0.002
27/06/2022,05:48:17,0.074,0.0,0.047,0.002
27/06/2022,05:49:44,0.073,0.0,0.048,0.001
27/06/2022,05:50:44,0.075,0.0,0.05,0.002
27/06/2022,05:51:44,0.077,0.0,0.051,0.001
27/06/2022,05:52:43,0.078,0.0,0.052,0.001
27/06/2022,05:53:43,0.080,0.0,0.053,0.001
27/06/2022,05:54:44,0.080,0.0,0.055,0.002
27/06/2022,05:55:44,0.079,0.0,0.056,0.001
27/06/2022,05:56:44,0.078,0.0,0.057,0.001
27/06/2022,05:57:44,0.083,0.0,0.059,0.002
27/06/2022,05:58:43,0.085,0.0,0.06,0.001
27/06/2022,05:59:44,0.085,0.0,0.062,0.002
27/06/2022,06:00:44,0.086,0.0,0.063,0.001
27/06/2022,06:01:52,0.085,0.0,0.065,0.002
27/06/2022,06:03:44,0.088,0.0,0.067,0.002
27/06/2022,06:04:44,0.088,0.0,0.069,0.002
27/06/2022,06:05:44,0.089,0.0,0.07,0.001
27/06/2022,06:06:43,0.087,0.0,0.072,0.002
27/06/2022,06:07:45,0.089,0.0,0.073,0.001
27/06/2022,06:08:35,0.091,0.0,0.074,0.001
27/06/2022,06:09:45,0.089,0.0,0.076,0.002
27/06/2022,06:10:39,0.081,0.0,0.077,0.001
27/06/2022,06:11:43,0.071,0.0,0.079,0.002
27/06/2022,06:12:44,0.068,0.0,0.08,0.001
27/06/2022,06:13:44,0.073,0.0,0.081,0.001
27/06/2022,06:14:44,0.066,0.0,0.082,0.001
27/06/2022,06:15:43,0.068,0.0,0.083,0.001
27/06/2022,06:16:44,0.087,0.0,0.085,0.002
27/06/2022,06:17:44,0.086,0.0,0.086,0.001
27/06/2022,06:18:44,0.072,0.0,0.087,0.001
27/06/2022,06:19:44,0.068,0.0,0.089,0.002
27/06/2022,06:20:44,0.076,0.0,0.09,0.001
27/06/2022,06:21:44,0.074,0.0,0.091,0.001
27/06/2022,06:22:44,0.073,0.0,0.092,0.001
27/06/2022,06:23:43,0.078,0.0,0.093,0.001
27/06/2022,06:24:43,0.082,0.0,0.095,0.002
27/06/2022,06:25:43,0.083,0.0,0.096,0.001
27/06/2022,06:26:52,0.080,0.0,0.098,0.002
27/06/2022,06:27:44,0.078,0.0,0.099,0.001
27/06/2022,06:28:43,0.070,0.0,0.1,0.001
27/06/2022,06:29:44,0.064,0.0,0.101,0.001
27/06/2022,06:30:44,0.059,0.0,0.102,0.001
27/06/2022,06:31:43,0.067,0.0,0.103,0.001
27/06/2022,06:32:44,0.080,0.0,0.105,0.002
27/06/2022,06:33:43,0.088,0.0,0.106,0.001
27/06/2022,06:34:44,0.092,0.0,0.107,0.001
27/06/2022,06:35:43,0.092,0.0,0.109,0.002
27/06/2022,06:36:43,0.092,0.0,0.111,0.002
27/06/2022,06:37:44,0.096,0.0,0.112,0.001
27/06/2022,06:38:44,0.096,0.0,0.114,0.002
27/06/2022,06:39:44,0.098,0.0,0.115,0.001
27/06/2022,06:40:52,0.086,0.0,0.117,0.002
27/06/2022,06:41:44,0.066,0.0,0.118,0.001
27/06/2022,06:42:43,0.068,0.0,0.119,0.001
27/06/2022,06:43:44,0.075,0.0,0.12,0.001
27/06/2022,06:44:44,0.075,0.0,0.122,0.002
27/06/2022,06:45:44,0.077,0.0,0.123,0.001
27/06/2022,06:46:44,0.078,0.0,0.124,0.001
27/06/2022,06:47:44,0.081,0.0,0.126,0.002
27/06/2022,06:48:44,0.083,0.0,0.127,0.001
27/06/2022,06:49:43,0.085,0.0,0.128,0.001
27/06/2022,06:50:44,0.084,0.0,0.13,0.002
27/06/2022,06:51:44,0.098,0.0,0.131,0.001
27/06/2022,06:52:56,0.100,0.0,0.133,0.002
27/06/2022,06:54:44,0.085,0.0,0.136,0.003
27/06/2022,06:55:43,0.074,0.0,0.137,0.001
27/06/2022,06:56:44,0.075,0.0,0.139,0.002
27/06/2022,06:57:44,0.085,0.0,0.14,0.001
27/06/2022,06:58:44,0.086,0.0,0.141,0.001
27/06/2022,06:59:44,0.097,0.0,0.143,0.002
27/06/2022,07:00:44,0.101,0.0,0.145,0.002
27/06/2022,07:01:44,0.112,0.0,0.146,0.001
27/06/2022,07:02:43,0.108,0.0,0.148,0.002
27/06/2022,07:03:44,0.088,0.0,0.15,0.002
27/06/2022,07:04:44,0.071,0.0,0.151,0.001
27/06/2022,07:05:44,0.072,0.0,0.152,0.001
27/06/2022,07:06:54,0.085,0.0,0.154,0.002
27/06/2022,07:07:42,0.093,0.0,0.155,0.001
27/06/2022,07:08:44,0.116,0.0,0.157,0.002
27/06/2022,07:09:44,0.125,0.0,0.159,0.002
27/06/2022,07:10:53,0.133,0.0,0.161,0.002
27/06/2022,07:11:43,0.142,0.0,0.163,0.002
27/06/2022,07:12:44,0.145,0.0,0.166,0.003
27/06/2022,07:13:44,0.138,0.0,0.168,0.002
27/06/2022,07:14:44,0.141,0.0,0.17,0.002
27/06/2022,07:15:44,0.155,0.0,0.173,0.003
27/06/2022,07:16:44,0.163,0.0,0.176,0.003
27/06/2022,07:17:44,0.168,0.0,0.178,0.002
27/06/2022,07:18:56,0.178,0.0,0.182,0.004
27/06/2022,07:20:53,0.194,0.0,0.188,0.006
27/06/2022,07:22:44,0.199,0.0,0.194,0.006
27/06/2022,07:23:43,0.201,0.0,0.197,0.003
27/06/2022,07:24:44,0.211,0.0,0.201,0.004
27/06/2022,07:25:44,0.218,1.0,0.204,0.003
27/06/2022,07:26:44,0.219,1.0,0.208,0.004
27/06/2022,07:27:43,0.209,0.0,0.212,0.004
27/06/2022,07:28:44,0.186,0.0,0.215,0.003
27/06/2022,07:29:44,0.168,0.0,0.218,0.003
27/06/2022,07:30:44,0.175,0.0,0.221,0.003
27/06/2022,07:31:44,0.176,0.0,0.224,0.003
27/06/2022,07:32:44,0.179,0.0,0.226,0.002
27/06/2022,07:33:43,0.188,0.0,0.23,0.004
27/06/2022,07:34:44,0.204,0.0,0.233,0.003
27/06/2022,07:35:52,0.206,0.0,0.237,0.004
27/06/2022,07:36:52,0.224,1.0,0.24,0.003
27/06/2022,07:37:44,0.240,1.0,0.244,0.004
27/06/2022,07:38:43,0.259,1.0,0.248,0.004
27/06/2022,07:39:44,0.270,1.0,0.252,0.004
27/06/2022,07:40:44,0.290,1.0,0.257,0.005
27/06/2022,07:41:44,0.298,1.0,0.262,0.005
27/06/2022,07:42:44,0.301,1.0,0.267,0.005
27/06/2022,07:43:43,0.304,1.0,0.272,0.005
27/06/2022,07:44:44,0.325,1.0,0.277,0.005
27/06/2022,07:45:52,0.339,1.0,0.283,0.006
27/06/2022,07:46:43,0.346,1.0,0.288,0.005
27/06/2022,07:47:45,0.351,1.0,0.294,0.006
27/06/2022,07:48:52,0.352,1.0,0.301,0.007
27/06/2022,07:49:44,0.354,1.0,0.306,0.005
27/06/2022,07:50:44,0.357,1.0,0.312,0.006
27/06/2022,07:51:44,0.370,1.0,0.318,0.006
27/06/2022,07:52:43,0.379,1.0,0.324,0.006
27/06/2022,07:53:43,0.389,1.0,0.33,0.006
27/06/2022,07:54:44,0.391,1.0,0.337,0.007
27/06/2022,07:55:44,0.394,1.0,0.344,0.007
27/06/2022,07:56:44,0.398,1.0,0.35,0.006
27/06/2022,07:57:44,0.398,1.0,0.357,0.007
27/06/2022,07:58:52,0.393,1.0,0.364,0.007
27/06/2022,07:59:44,0.370,1.0,0.37,0.006
27/06/2022,08:00:44,0.355,1.0,0.376,0.006
27/06/2022,08:01:44,0.358,1.0,0.382,0.006
27/06/2022,08:02:44,0.364,1.0,0.388,0.006
27/06/2022,08:03:44,0.368,1.0,0.394,0.006
27/06/2022,08:04:52,0.379,1.0,0.401,0.007
27/06/2022,08:05:44,0.382,1.0,0.406,0.005
27/06/2022,08:06:44,0.389,1.0,0.413,0.007
27/06/2022,08:07:44,0.401,1.0,0.419,0.006
27/06/2022,08:08:46,0.393,1.0,0.426,0.007
27/06/2022,08:09:44,0.415,1.0,0.433,0.007
27/06/2022,08:10:44,0.454,1.0,0.44,0.007
27/06/2022,08:11:44,0.488,1.0,0.448,0.008
27/06/2022,08:12:44,0.519,1.0,0.456,0.008
27/06/2022,08:13:44,0.540,1.0,0.465,0.009
27/06/2022,08:14:52,0.562,1.0,0.476,0.011
27/06/2022,08:15:44,0.546,1.0,0.484,0.008
27/06/2022,08:16:44,0.516,1.0,0.492,0.008
27/06/2022,08:17:44,0.488,1.0,0.501,0.009
27/06/2022,08:18:44,0.452,1.0,0.509,0.008
27/06/2022,08:19:44,0.385,1.0,0.516,0.007
27/06/2022,08:20:44,0.359,1.0,0.522,0.006
27/06/2022,08:21:44,0.396,1.0,0.528,0.006
27/06/2022,08:22:56,0.462,1.0,0.537,0.009
27/06/2022,08:24:44,0.471,1.0,0.551,0.014
27/06/2022,08:25:44,0.482,1.0,0.559,0.008
27/06/2022,08:26:44,0.515,1.0,0.567,0.008
27/06/2022,08:27:53,0.534,1.0,0.577,0.01
27/06/2022,08:28:44,0.530,1.0,0.585,0.008
27/06/2022,08:29:44,0.518,1.0,0.593,0.008
27/06/2022,08:30:44,0.501,1.0,0.602,0.009
27/06/2022,08:31:44,0.458,1.0,0.61,0.008
27/06/2022,08:32:44,0.439,1.0,0.617,0.007
27/06/2022,08:33:43,0.426,1.0,0.624,0.007
27/06/2022,08:34:44,0.442,1.0,0.632,0.008
27/06/2022,08:35:44,0.485,1.0,0.639,0.007
27/06/2022,08:36:43,0.526,1.0,0.648,0.009
27/06/2022,08:37:44,0.523,1.0,0.657,0.009
27/06/2022,08:38:51,0.504,1.0,0.666,0.009
27/06/2022,08:40:44,0.457,1.0,0.681,0.015
27/06/2022,08:41:44,0.411,1.0,0.689,0.008
27/06/2022,08:42:44,0.358,1.0,0.695,0.006
27/06/2022,08:43:52,0.267,1.0,0.701,0.006
27/06/2022,08:44:44,0.245,1.0,0.705,0.004
27/06/2022,08:45:44,0.261,1.0,0.709,0.004
27/06/2022,08:46:44,0.300,1.0,0.713,0.004
27/06/2022,08:47:44,0.397,1.0,0.719,0.006
27/06/2022,08:48:44,0.490,1.0,0.727,0.008
27/06/2022,08:49:44,0.495,1.0,0.735,0.008
27/06/2022,08:50:44,0.397,1.0,0.742,0.007
27/06/2022,08:51:44,0.284,1.0,0.748,0.006
27/06/2022,08:52:44,0.296,1.0,0.753,0.005
27/06/2022,08:53:44,0.386,1.0,0.758,0.005
27/06/2022,08:54:44,0.552,1.0,0.766,0.008
27/06/2022,08:55:44,0.595,1.0,0.776,0.01
27/06/2022,08:56:52,0.596,1.0,0.787,0.011
27/06/2022,08:57:43,0.585,1.0,0.796,0.009
27/06/2022,08:58:44,0.580,1.0,0.805,0.009
27/06/2022,08:59:44,0.587,1.0,0.815,0.01
27/06/2022,09:00:44,0.602,1.0,0.825,0.01
27/06/2022,09:01:44,0.621,1.0,0.835,0.01
27/06/2022,09:02:44,0.669,2.0,0.846,0.011
27/06/2022,09:03:44,0.710,2.0,0.857,0.011
27/06/2022,09:04:44,0.732,2.0,0.869,0.012
27/06/2022,09:05:43,0.732,2.0,0.882,0.013
27/06/2022,09:06:44,0.692,2.0,0.894,0.012
27/06/2022,09:07:44,0.626,1.0,0.904,0.01
27/06/2022,09:08:43,0.668,2.0,0.915,0.011
27/06/2022,09:09:53,0.682,2.0,0.928,0.013
27/06/2022,09:11:52,0.465,1.0,0.949,0.021
27/06/2022,09:12:51,0.386,1.0,0.956,0.007
27/06/2022,09:13:44,0.372,1.0,0.961,0.005
27/06/2022,09:14:44,0.352,1.0,0.967,0.006
27/06/2022,09:15:44,0.349,1.0,0.973,0.006
27/06/2022,09:16:43,0.362,1.0,0.979,0.006
27/06/2022,09:17:43,0.360,1.0,0.985,0.006
27/06/2022,09:18:44,0.385,1.0,0.991,0.006
27/06/2022,09:19:44,0.435,1.0,0.998,0.007
27/06/2022,09:20:44,0.535,1.0,1.006,0.008
27/06/2022,09:21:44,0.662,2.0,1.016,0.01
27/06/2022,09:22:44,0.755,2.0,1.028,0.012
27/06/2022,09:23:44,0.827,2.0,1.041,0.013
27/06/2022,09:24:44,0.884,2.0,1.056,0.015
27/06/2022,09:25:44,0.927,2.0,1.071,0.015
27/06/2022,09:26:44,0.976,2.0,1.087,0.016
27/06/2022,09:27:37,0.990,2.0,1.101,0.014
27/06/2022,09:28:45,1.042,2.0,1.12,0.019
27/06/2022,09:29:44,1.131,3.0,1.138,0.018
27/06/2022,09:30:44,1.066,2.0,1.157,0.019
27/06/2022,09:31:44,1.052,2.0,1.175,0.018
27/06/2022,09:32:44,1.167,3.0,1.193,0.018
27/06/2022,09:33:44,1.113,3.0,1.212,0.019
27/06/2022,09:34:44,1.370,3.0,1.231,0.019
27/06/2022,09:35:53,1.149,3.0,1.253,0.022
27/06/2022,09:36:44,1.044,2.0,1.27,0.017
27/06/2022,09:37:44,1.047,2.0,1.289,0.019
27/06/2022,09:38:44,0.965,2.0,1.305,0.016
27/06/2022,09:39:44,0.930,2.0,1.321,0.016
27/06/2022,09:40:44,0.935,2.0,1.337,0.016
27/06/2022,09:41:44,0.855,2.0,1.352,0.015
27/06/2022,09:42:44,0.831,2.0,1.365,0.013
27/06/2022,09:43:44,0.737,2.0,1.378,0.013
27/06/2022,09:44:44,0.628,1.0,1.39,0.012
27/06/2022,09:45:44,0.675,2.0,1.4,0.01
27/06/2022,09:46:44,0.682,2.0,1.412,0.012
27/06/2022,09:47:44,0.632,1.0,1.423,0.011
27/06/2022,09:48:44,0.591,1.0,1.433,0.01
27/06/2022,09:49:44,0.564,1.0,1.443,0.01
27/06/2022,09:50:44,0.498,1.0,1.452,0.009
27/06/2022,09:51:44,0.461,1.0,1.46,0.008
27/06/2022,09:52:52,0.480,1.0,1.469,0.009
27/06/2022,09:53:44,0.457,1.0,1.476,0.007
27/06/2022,09:54:44,0.406,1.0,1.483,0.007
27/06/2022,09:55:44,0.372,1.0,1.489,0.006
27/06/2022,09:56:44,0.352,1.0,1.495,0.006
27/06/2022,09:57:44,0.319,1.0,1.501,0.006
27/06/2022,09:58:44,0.276,1.0,1.506,0.005
27/06/2022,09:59:44,0.232,1.0,1.51,0.004
27/06/2022,10:00:44,0.184,0.0,1.513,0.003
27/06/2022,10:01:44,0.181,0.0,1.516,0.003
27/06/2022,10:02:44,0.212,0.0,1.52,0.004
27/06/2022,10:03:44,0.241,1.0,1.524,0.004
27/06/2022,10:04:45,0.263,1.0,1.528,0.004
27/06/2022,10:05:44,0.312,1.0,1.532,0.004
27/06/2022,10:06:44,0.442,1.0,1.539,0.007
27/06/2022,10:07:52,0.622,1.0,1.549,0.01
27/06/2022,10:08:52,0.756,2.0,1.56,0.011
27/06/2022,10:09:43,0.837,2.0,1.572,0.012
27/06/2022,10:10:44,0.893,2.0,1.586,0.014
27/06/2022,10:11:44,0.901,2.0,1.601,0.015
27/06/2022,10:12:44,1.123,3.0,1.617,0.016